Weather History for KASE - January, 2014

Change the Weather History Date:

Tuesday, January 14, 2014

  Actual Average Record
Temperature  
Mean Temperature 22 °F 20 °F  
Max Temperature 33 °F 33 °F 47 °F (1983)
Min Temperature 11 °F 7 °F -14 °F (1989)
Degree Days  
Heating Degree Days 43 45  
Month to date heating degree days 640 633  
Since 1 July heating degree days 4355 4354  
Cooling Degree Days 0 0  
Month to date cooling degree days 0 0  
Year to date cooling degree days 0 0  
Moisture  
Dew Point 13 °F    
Average Humidity 60    
Maximum Humidity 77    
Minimum Humidity 43    
Precipitation  
Precipitation 0.00 in 0.03 in 0.10 in (1989)
Month to date precipitation 0.21 0.50  
Year to date precipitation 0.21 0.50  
Sea Level Pressure  
Sea Level Pressure 30.42 in    
Wind  
Wind Speed 7 mph (West)    
Max Wind Speed 20 mph    
Max Gust Speed 28 mph    
Visibility 10 miles    
Events      
T = Trace of Precipitation, MM = Missing Value Source: NWS Daily Summary

Daily Weather History Graph

Daily Weather History Graph

Search for Another Location

Airport or City:

Trip Planner

Search our weather history database for the weather conditions in past years. The results will help you decide how hot, cold, wet, or windy it might be!

Date:

Astronomy

Jan. 14, 2014 Rise Set
Actual Time 7:25 AM MST 5:07 PM MST
Civil Twilight 6:56 AM MST 5:37 PM MST
Nautical Twilight 6:23 AM MST 6:10 PM MST
Astronomical Twilight 5:51 AM MST 6:42 PM MST
Moon 4:15 PM MST (1/14) 6:02 AM MST (1/14)
Length of Visible Light 10h 40m
Length of Day
9h 42m
Waxing Gibbous, 98% of the Moon is Illuminated
Jan 14
Waxing Gibbous
Jan 15
Full
Jan 23
Last Quarter
Jan 30
New
Feb 6
First Quarter

Hourly Weather History & Observations

Time (MST) Temp. Windchill Dew Point Humidity Pressure Visibility Wind Dir Wind Speed Gust Speed Precip Events Conditions
12:53 AM 19.9 °F 13.4 °F 14.0 °F 78% 30.27 in 10.0 mi South 4.6 mph - N/A   Overcast
1:53 AM 21.0 °F 16.2 °F 15.1 °F 78% 30.28 in 10.0 mi South 3.5 mph - N/A   Overcast
2:53 AM 19.0 °F - 14.0 °F 81% 30.28 in 10.0 mi Calm Calm - N/A   Overcast
3:53 AM 19.0 °F - 14.0 °F 81% 30.30 in 10.0 mi Calm Calm - N/A   Overcast
4:53 AM 24.1 °F 16.0 °F 15.1 °F 69% 30.30 in 10.0 mi NNW 6.9 mph - N/A   Overcast
5:53 AM 23.0 °F - 15.1 °F 72% 30.37 in 10.0 mi Calm Calm - N/A   Overcast
6:53 AM 23.0 °F 17.0 °F 15.1 °F 72% 30.37 in 10.0 mi SSE 4.6 mph - N/A   Overcast
7:53 AM 21.9 °F - 15.1 °F 75% 30.39 in 10.0 mi Calm Calm - N/A   Overcast
8:53 AM 24.1 °F 13.7 °F 15.1 °F 69% 30.41 in 6.0 mi North 10.4 mph - N/A   Haze
9:53 AM 27.0 °F 16.1 °F 15.1 °F 61% 30.41 in 9.0 mi NNW 12.7 mph - N/A   Overcast
10:53 AM 28.9 °F 19.8 °F 16.0 °F 58% 30.43 in 9.0 mi North 10.4 mph - N/A   Overcast
11:53 AM 30.0 °F 19.1 °F 14.0 °F 51% 30.40 in 8.0 mi NW 15.0 mph 23.0 mph N/A   Overcast
12:53 PM 30.0 °F 19.5 °F 14.0 °F 51% 30.42 in 10.0 mi North 13.8 mph 24.2 mph N/A   Overcast
1:53 PM 32.0 °F 23.0 °F 14.0 °F 48% 30.40 in 10.0 mi NNW 11.5 mph 18.4 mph N/A   Mostly Cloudy
2:53 PM 32.0 °F 23.6 °F 14.0 °F 48% 30.41 in 10.0 mi NW 10.4 mph 19.6 mph N/A   Mostly Cloudy
3:53 PM 32.0 °F 23.6 °F 12.9 °F 45% 30.44 in 10.0 mi NNW 10.4 mph 23.0 mph N/A   Mostly Cloudy
4:53 PM 30.0 °F 23.2 °F 12.9 °F 49% 30.44 in 10.0 mi NNW 6.9 mph - N/A   Partly Cloudy
5:53 PM 23.0 °F 18.4 °F 12.0 °F 63% 30.50 in 10.0 mi NW 3.5 mph - N/A   Mostly Cloudy
6:53 PM 17.1 °F 11.7 °F 9.0 °F 71% 30.54 in 10.0 mi SSW 3.5 mph - N/A   Clear
7:53 PM 18.0 °F 11.1 °F 8.1 °F 65% 30.55 in 10.0 mi SSW 4.6 mph - N/A   Clear
8:53 PM 17.1 °F 6.6 °F 9.0 °F 71% 30.54 in 10.0 mi South 8.1 mph - N/A   Partly Cloudy
9:53 PM 12.9 °F 3.8 °F 6.1 °F 74% 30.57 in 10.0 mi SSW 5.8 mph - N/A   Clear
10:53 PM 14.0 °F 5.1 °F 7.0 °F 74% 30.54 in 10.0 mi South 5.8 mph - N/A   Clear
11:53 PM 12.9 °F 1.6 °F 7.0 °F 77% 30.52 in 10.0 mi SSW 8.1 mph - N/A   Clear